Tracking 18673 objects as of 27-June-2017
HD Live streaming from Space Station
objects crossing your sky now

BEESAT 4

Track BEESAT 4 now!
10-day predictions
BEESAT 4 is classified as:


NORAD ID: 41619
Int'l Code: 2016-040W
Perigee: 501.6 km
Apogee: 519.7 km
Inclination: 97.5 °
Period: 94.7 minutes
Semi major axis: 6881 km
RCS: Unknown
Launch date: June 22, 2016
Source: Germany (GER)
Launch site: SIRHARIKOTA (SRI)
Uplink (MHz):
Downlink (MHz): 435.950
Beacon (MHz): 435.950
Mode: 4800bps GMSK CW
Call sign: DP0BEH
Status: Active

Your satellite tracking list
Your tracking list is empty





NASA's NSSDC Master Catalog

Two Line Element Set (TLE):
1 41619U 16040W   17177.73215724 +.00001440 +00000-0 +68411-4 0  9999
2 41619 097.4618 240.0274 0013136 041.5919 318.6313 15.20775989044040
Source of the keplerian elements: AFSPC